owner,sensor,date,latitude,longitude,mass_concentration_of_chlorophyll_in_sea_water,qcFlag 
SCCF RECON,ioos:station:SCCF:11:1,2019-09-01T04:00:00Z,26.4679,-82.0631,7.5,11111222 
SCCF RECON,ioos:station:SCCF:11:1,2019-09-01T05:00:00Z,26.4679,-82.0631,7.12,11111222 
SCCF RECON,ioos:station:SCCF:11:1,2019-09-01T06:00:00Z,26.4679,-82.0631,6.89,11111222 
SCCF RECON,ioos:station:SCCF:11:1,2019-09-01T07:00:00Z,26.4679,-82.0631,6.57,11111222 
SCCF RECON,ioos:station:SCCF:11:1,2019-09-01T08:00:00Z,26.4679,-82.0631,4.73,11111222 
SCCF RECON,ioos:station:SCCF:11:1,2019-09-01T09:00:00Z,26.4679,-82.0631,5.02,11111222 
SCCF RECON,ioos:station:SCCF:11:1,2019-09-01T10:00:00Z,26.4679,-82.0631,6.1,11111222 
SCCF RECON,ioos:station:SCCF:11:1,2019-09-01T11:00:00Z,26.4679,-82.0631,6.42,11111222 
SCCF RECON,ioos:station:SCCF:11:1,2019-09-01T12:00:00Z,26.4679,-82.0631,6.79,11111222 
SCCF RECON,ioos:station:SCCF:11:1,2019-09-01T13:00:00Z,26.4679,-82.0631,7.28,11111222 
SCCF RECON,ioos:station:SCCF:11:1,2019-09-01T14:00:00Z,26.4679,-82.0631,7.13,11111222 
SCCF RECON,ioos:station:SCCF:11:1,2019-09-01T15:00:00Z,26.4679,-82.0631,7.17,11111222 
SCCF RECON,ioos:station:SCCF:11:1,2019-09-01T16:00:00Z,26.4679,-82.0631,7.08,11111222 
SCCF RECON,ioos:station:SCCF:11:1,2019-09-01T17:00:00Z,26.4679,-82.0631,6.48,11111222 
SCCF RECON,ioos:station:SCCF:11:1,2019-09-01T18:00:00Z,26.4679,-82.0631,8.91,11111222 
SCCF RECON,ioos:station:SCCF:11:1,2019-09-01T19:00:00Z,26.4679,-82.0631,6.04,11111222 
SCCF RECON,ioos:station:SCCF:11:1,2019-09-01T20:00:00Z,26.4679,-82.0631,8.78,11111222 
SCCF RECON,ioos:station:SCCF:11:1,2019-09-01T21:00:00Z,26.4679,-82.0631,5.88,11111222 
SCCF RECON,ioos:station:SCCF:11:1,2019-09-01T22:00:00Z,26.4679,-82.0631,12.3,11111222 
SCCF RECON,ioos:station:SCCF:11:1,2019-09-01T23:00:00Z,26.4679,-82.0631,13.28,11111222 
SCCF RECON,ioos:station:SCCF:11:1,2019-09-02T04:00:00Z,26.4679,-82.0631,15.56,11111222 
SCCF RECON,ioos:station:SCCF:11:1,2019-09-02T05:00:00Z,26.4679,-82.0631,12.23,11111222 
SCCF RECON,ioos:station:SCCF:11:1,2019-09-02T06:00:00Z,26.4679,-82.0631,8.4,11111222 
SCCF RECON,ioos:station:SCCF:11:1,2019-09-02T07:00:00Z,26.4679,-82.0631,8.38,11111222 
SCCF RECON,ioos:station:SCCF:11:1,2019-09-02T08:00:00Z,26.4679,-82.0631,7.45,11111222 
SCCF RECON,ioos:station:SCCF:11:1,2019-09-02T09:00:00Z,26.4679,-82.0631,7.32,11111222 
SCCF RECON,ioos:station:SCCF:11:1,2019-09-02T10:00:00Z,26.4679,-82.0631,8.33,11111222 
SCCF RECON,ioos:station:SCCF:11:1,2019-09-02T11:00:00Z,26.4679,-82.0631,8.49,11111222 
SCCF RECON,ioos:station:SCCF:11:1,2019-09-02T12:00:00Z,26.4679,-82.0631,8.47,11111222 
SCCF RECON,ioos:station:SCCF:11:1,2019-09-02T13:00:00Z,26.4679,-82.0631,9.26,11111222 
SCCF RECON,ioos:station:SCCF:11:1,2019-09-02T16:00:00Z,26.4679,-82.0631,11.86,11111222 
SCCF RECON,ioos:station:SCCF:11:1,2019-09-02T17:00:00Z,26.4679,-82.0631,13.07,11111222 
SCCF RECON,ioos:station:SCCF:11:1,2019-09-02T18:00:00Z,26.4679,-82.0631,14.58,11111222 
SCCF RECON,ioos:station:SCCF:11:1,2019-09-02T19:00:00Z,26.4679,-82.0631,15.13,11111222 
SCCF RECON,ioos:station:SCCF:11:1,2019-09-02T20:00:00Z,26.4679,-82.0631,14.72,11111222 
SCCF RECON,ioos:station:SCCF:11:1,2019-09-02T21:00:00Z,26.4679,-82.0631,20.64,11111222 
SCCF RECON,ioos:station:SCCF:11:1,2019-09-02T22:00:00Z,26.4679,-82.0631,18.19,11111222 
SCCF RECON,ioos:station:SCCF:11:1,2019-09-02T23:00:00Z,26.4679,-82.0631,15.34,11111222 
SCCF RECON,ioos:station:SCCF:11:1,2019-09-03T04:00:00Z,26.4679,-82.0631,17.22,11111222 
SCCF RECON,ioos:station:SCCF:11:1,2019-09-03T05:00:00Z,26.4679,-82.0631,16.7,11111222 
SCCF RECON,ioos:station:SCCF:11:1,2019-09-03T06:00:00Z,26.4679,-82.0631,14.72,11111222 
SCCF RECON,ioos:station:SCCF:11:1,2019-09-03T07:00:00Z,26.4679,-82.0631,13.2,11111222 
SCCF RECON,ioos:station:SCCF:11:1,2019-09-03T08:00:00Z,26.4679,-82.0631,11.21,11111222 
SCCF RECON,ioos:station:SCCF:11:1,2019-09-03T09:00:00Z,26.4679,-82.0631,11.54,11111222 
SCCF RECON,ioos:station:SCCF:11:1,2019-09-03T10:00:00Z,26.4679,-82.0631,12.34,11111222 
SCCF RECON,ioos:station:SCCF:11:1,2019-09-03T11:00:00Z,26.4679,-82.0631,11.33,11111222 
SCCF RECON,ioos:station:SCCF:11:1,2019-09-03T12:00:00Z,26.4679,-82.0631,10.44,11111222 
SCCF RECON,ioos:station:SCCF:11:1,2019-09-03T13:00:00Z,26.4679,-82.0631,11.03,11111222 
SCCF RECON,ioos:station:SCCF:11:1,2019-09-03T14:00:00Z,26.4679,-82.0631,11.43,11111222 
SCCF RECON,ioos:station:SCCF:11:1,2019-09-03T15:00:00Z,26.4679,-82.0631,13.45,11111222 
SCCF RECON,ioos:station:SCCF:11:1,2019-09-03T16:00:00Z,26.4679,-82.0631,13.3,11111222 
SCCF RECON,ioos:station:SCCF:11:1,2019-09-03T17:00:00Z,26.4679,-82.0631,13.37,11111222 
SCCF RECON,ioos:station:SCCF:11:1,2019-09-03T18:00:00Z,26.4679,-82.0631,12.73,11111222 
SCCF RECON,ioos:station:SCCF:11:1,2019-09-03T19:00:00Z,26.4679,-82.0631,12.29,11111222 
SCCF RECON,ioos:station:SCCF:11:1,2019-09-03T20:00:00Z,26.4679,-82.0631,11.98,11111222 
SCCF RECON,ioos:station:SCCF:11:1,2019-09-03T21:00:00Z,26.4679,-82.0631,11.48,11111222 
SCCF RECON,ioos:station:SCCF:11:1,2019-09-03T22:00:00Z,26.4679,-82.0631,11.95,11111222 
SCCF RECON,ioos:station:SCCF:11:1,2019-09-03T23:00:00Z,26.4679,-82.0631,11.38,11111222 
SCCF RECON,ioos:station:SCCF:11:1,2019-09-04T04:00:00Z,26.4679,-82.0631,10.99,11111222 
SCCF RECON,ioos:station:SCCF:11:1,2019-09-04T05:00:00Z,26.4679,-82.0631,8.53,11111222 
SCCF RECON,ioos:station:SCCF:11:1,2019-09-04T06:00:00Z,26.4679,-82.0631,8.12,11111222 
SCCF RECON,ioos:station:SCCF:11:1,2019-09-04T07:00:00Z,26.4679,-82.0631,7.94,11111222 
SCCF RECON,ioos:station:SCCF:11:1,2019-09-04T08:00:00Z,26.4679,-82.0631,7.58,11111222 
SCCF RECON,ioos:station:SCCF:11:1,2019-09-04T09:00:00Z,26.4679,-82.0631,7.19,11111222 
SCCF RECON,ioos:station:SCCF:11:1,2019-09-04T10:00:00Z,26.4679,-82.0631,6.93,11111222 
SCCF RECON,ioos:station:SCCF:11:1,2019-09-04T11:00:00Z,26.4679,-82.0631,6.79,11111222 
SCCF RECON,ioos:station:SCCF:11:1,2019-09-04T12:00:00Z,26.4679,-82.0631,6.91,11111222 
SCCF RECON,ioos:station:SCCF:11:1,2019-09-04T13:00:00Z,26.4679,-82.0631,6.94,11111222 
SCCF RECON,ioos:station:SCCF:11:1,2019-09-04T14:00:00Z,26.4679,-82.0631,7.89,11111222 
SCCF RECON,ioos:station:SCCF:11:1,2019-09-04T15:00:00Z,26.4679,-82.0631,8.23,11111222 
SCCF RECON,ioos:station:SCCF:11:1,2019-09-04T16:00:00Z,26.4679,-82.0631,9.16,11111222 
SCCF RECON,ioos:station:SCCF:11:1,2019-09-04T17:00:00Z,26.4679,-82.0631,8.59,11111222 
SCCF RECON,ioos:station:SCCF:11:1,2019-09-04T18:00:00Z,26.4679,-82.0631,8.23,11111222 
SCCF RECON,ioos:station:SCCF:11:1,2019-09-04T19:00:00Z,26.4679,-82.0631,9.17,11111222 
SCCF RECON,ioos:station:SCCF:11:1,2019-09-04T20:00:00Z,26.4679,-82.0631,9.29,11111222 
SCCF RECON,ioos:station:SCCF:11:1,2019-09-04T21:00:00Z,26.4679,-82.0631,9.19,11111222 
SCCF RECON,ioos:station:SCCF:11:1,2019-09-04T22:00:00Z,26.4679,-82.0631,9.02,11111222 
SCCF RECON,ioos:station:SCCF:11:1,2019-09-04T23:00:00Z,26.4679,-82.0631,9.65,11111222 
SCCF RECON,ioos:station:SCCF:11:1,2019-09-05T04:00:00Z,26.4679,-82.0631,7.95,11111222 
SCCF RECON,ioos:station:SCCF:11:1,2019-09-05T05:00:00Z,26.4679,-82.0631,7.82,11111222 
SCCF RECON,ioos:station:SCCF:11:1,2019-09-05T06:00:00Z,26.4679,-82.0631,7.44,11111222 
SCCF RECON,ioos:station:SCCF:11:1,2019-09-05T07:00:00Z,26.4679,-82.0631,7.14,11111222 
SCCF RECON,ioos:station:SCCF:11:1,2019-09-05T08:00:00Z,26.4679,-82.0631,6.88,11111222 
SCCF RECON,ioos:station:SCCF:11:1,2019-09-05T09:00:00Z,26.4679,-82.0631,7.16,11111222 
SCCF RECON,ioos:station:SCCF:11:1,2019-09-05T10:00:00Z,26.4679,-82.0631,6.94,11111222 
SCCF RECON,ioos:station:SCCF:11:1,2019-09-05T11:00:00Z,26.4679,-82.0631,6.54,11111222 
SCCF RECON,ioos:station:SCCF:11:1,2019-09-05T12:00:00Z,26.4679,-82.0631,6.17,11111222 
SCCF RECON,ioos:station:SCCF:11:1,2019-09-05T13:00:00Z,26.4679,-82.0631,5.27,11111222 
SCCF RECON,ioos:station:SCCF:11:1,2019-09-05T14:00:00Z,26.4679,-82.0631,5.23,11111222 
SCCF RECON,ioos:station:SCCF:11:1,2019-09-05T15:00:00Z,26.4679,-82.0631,5.57,11111222 
SCCF RECON,ioos:station:SCCF:11:1,2019-09-05T16:00:00Z,26.4679,-82.0631,6.11,11111222 
SCCF RECON,ioos:station:SCCF:11:1,2019-09-05T17:00:00Z,26.4679,-82.0631,6.88,11111222 
SCCF RECON,ioos:station:SCCF:11:1,2019-09-05T18:00:00Z,26.4679,-82.0631,6.66,11111222 
SCCF RECON,ioos:station:SCCF:11:1,2019-09-05T19:00:00Z,26.4679,-82.0631,6.34,11111222 
SCCF RECON,ioos:station:SCCF:11:1,2019-09-05T20:00:00Z,26.4679,-82.0631,5.8,11111222 
SCCF RECON,ioos:station:SCCF:11:1,2019-09-05T21:00:00Z,26.4679,-82.0631,5.93,11111222 
SCCF RECON,ioos:station:SCCF:11:1,2019-09-05T22:00:00Z,26.4679,-82.0631,6.43,11111222 
SCCF RECON,ioos:station:SCCF:11:1,2019-09-05T23:00:00Z,26.4679,-82.0631,6.67,11111222 
SCCF RECON,ioos:station:SCCF:11:1,2019-09-06T04:00:00Z,26.4679,-82.0631,6.01,11111222 
SCCF RECON,ioos:station:SCCF:11:1,2019-09-06T05:00:00Z,26.4679,-82.0631,6.09,11111222 
SCCF RECON,ioos:station:SCCF:11:1,2019-09-06T07:00:00Z,26.4679,-82.0631,5.25,11111222 
SCCF RECON,ioos:station:SCCF:11:1,2019-09-06T08:00:00Z,26.4679,-82.0631,5.0,11111222 
SCCF RECON,ioos:station:SCCF:11:1,2019-09-06T09:00:00Z,26.4679,-82.0631,4.83,11111222 
SCCF RECON,ioos:station:SCCF:11:1,2019-09-06T10:00:00Z,26.4679,-82.0631,4.67,11111222 
SCCF RECON,ioos:station:SCCF:11:1,2019-09-06T11:00:00Z,26.4679,-82.0631,4.86,11111222 
SCCF RECON,ioos:station:SCCF:11:1,2019-09-06T12:00:00Z,26.4679,-82.0631,4.73,11111222 
SCCF RECON,ioos:station:SCCF:11:1,2019-09-06T13:00:00Z,26.4679,-82.0631,4.34,11111222 
SCCF RECON,ioos:station:SCCF:11:1,2019-09-06T14:00:00Z,26.4679,-82.0631,4.0,11111222 
SCCF RECON,ioos:station:SCCF:11:1,2019-09-06T15:00:00Z,26.4679,-82.0631,4.72,11111222 
SCCF RECON,ioos:station:SCCF:11:1,2019-09-06T16:00:00Z,26.4679,-82.0631,4.96,11111222 
SCCF RECON,ioos:station:SCCF:11:1,2019-09-06T17:00:00Z,26.4679,-82.0631,5.66,11111222 
SCCF RECON,ioos:station:SCCF:11:1,2019-09-06T18:00:00Z,26.4679,-82.0631,7.91,11111222 
SCCF RECON,ioos:station:SCCF:11:1,2019-09-06T19:00:00Z,26.4679,-82.0631,5.09,11111222 
SCCF RECON,ioos:station:SCCF:11:1,2019-09-06T20:00:00Z,26.4679,-82.0631,5.1,11111222 
SCCF RECON,ioos:station:SCCF:11:1,2019-09-06T21:00:00Z,26.4679,-82.0631,4.79,11111222 
SCCF RECON,ioos:station:SCCF:11:1,2019-09-06T22:00:00Z,26.4679,-82.0631,5.03,11111222 
SCCF RECON,ioos:station:SCCF:11:1,2019-09-06T23:00:00Z,26.4679,-82.0631,4.99,11111222 
SCCF RECON,ioos:station:SCCF:11:1,2019-09-07T04:00:00Z,26.4679,-82.0631,4.53,11111222 
SCCF RECON,ioos:station:SCCF:11:1,2019-09-07T05:00:00Z,26.4679,-82.0631,4.64,11111222 
SCCF RECON,ioos:station:SCCF:11:1,2019-09-07T06:00:00Z,26.4679,-82.0631,4.92,11111222 
SCCF RECON,ioos:station:SCCF:11:1,2019-09-07T07:00:00Z,26.4679,-82.0631,4.56,11111222 
SCCF RECON,ioos:station:SCCF:11:1,2019-09-07T08:00:00Z,26.4679,-82.0631,4.49,11111222 
SCCF RECON,ioos:station:SCCF:11:1,2019-09-07T09:00:00Z,26.4679,-82.0631,3.91,11111222 
SCCF RECON,ioos:station:SCCF:11:1,2019-09-07T10:00:00Z,26.4679,-82.0631,3.54,11111222 
SCCF RECON,ioos:station:SCCF:11:1,2019-09-07T11:00:00Z,26.4679,-82.0631,3.7,11111222 
SCCF RECON,ioos:station:SCCF:11:1,2019-09-07T12:00:00Z,26.4679,-82.0631,3.48,11111222 
SCCF RECON,ioos:station:SCCF:11:1,2019-09-07T13:00:00Z,26.4679,-82.0631,3.8,11111222 
SCCF RECON,ioos:station:SCCF:11:1,2019-09-07T14:00:00Z,26.4679,-82.0631,3.24,11111222 
SCCF RECON,ioos:station:SCCF:11:1,2019-09-07T15:00:00Z,26.4679,-82.0631,3.65,11111222 
SCCF RECON,ioos:station:SCCF:11:1,2019-09-07T16:00:00Z,26.4679,-82.0631,4.27,11111222 
SCCF RECON,ioos:station:SCCF:11:1,2019-09-07T17:00:00Z,26.4679,-82.0631,4.88,11111222 
SCCF RECON,ioos:station:SCCF:11:1,2019-09-07T18:00:00Z,26.4679,-82.0631,5.19,11111222 
SCCF RECON,ioos:station:SCCF:11:1,2019-09-07T19:00:00Z,26.4679,-82.0631,5.12,11111222 
SCCF RECON,ioos:station:SCCF:11:1,2019-09-07T20:00:00Z,26.4679,-82.0631,5.48,11111222 
SCCF RECON,ioos:station:SCCF:11:1,2019-09-07T21:00:00Z,26.4679,-82.0631,5.31,11111222 
SCCF RECON,ioos:station:SCCF:11:1,2019-09-07T22:00:00Z,26.4679,-82.0631,4.43,11111222 
SCCF RECON,ioos:station:SCCF:11:1,2019-09-07T23:00:00Z,26.4679,-82.0631,4.84,11111222 
SCCF RECON,ioos:station:SCCF:11:1,2019-09-08T04:00:00Z,26.4679,-82.0631,4.21,11111222 
SCCF RECON,ioos:station:SCCF:11:1,2019-09-08T05:00:00Z,26.4679,-82.0631,4.54,11111222 
SCCF RECON,ioos:station:SCCF:11:1,2019-09-08T06:00:00Z,26.4679,-82.0631,3.71,11111222 
SCCF RECON,ioos:station:SCCF:11:1,2019-09-08T07:00:00Z,26.4679,-82.0631,4.04,11111222 
SCCF RECON,ioos:station:SCCF:11:1,2019-09-08T08:00:00Z,26.4679,-82.0631,4.38,11111222 
SCCF RECON,ioos:station:SCCF:11:1,2019-09-08T09:00:00Z,26.4679,-82.0631,5.27,11111222 
SCCF RECON,ioos:station:SCCF:11:1,2019-09-08T10:00:00Z,26.4679,-82.0631,4.11,11111222 
SCCF RECON,ioos:station:SCCF:11:1,2019-09-08T11:00:00Z,26.4679,-82.0631,3.72,11111222 
SCCF RECON,ioos:station:SCCF:11:1,2019-09-08T12:00:00Z,26.4679,-82.0631,4.46,11111222 
SCCF RECON,ioos:station:SCCF:11:1,2019-09-08T13:00:00Z,26.4679,-82.0631,3.9,11111222 
SCCF RECON,ioos:station:SCCF:11:1,2019-09-08T14:00:00Z,26.4679,-82.0631,2.99,11111222 
SCCF RECON,ioos:station:SCCF:11:1,2019-09-08T15:00:00Z,26.4679,-82.0631,3.4,11111222 
SCCF RECON,ioos:station:SCCF:11:1,2019-09-08T16:00:00Z,26.4679,-82.0631,4.11,11111222 
SCCF RECON,ioos:station:SCCF:11:1,2019-09-08T17:00:00Z,26.4679,-82.0631,4.81,11111222 
SCCF RECON,ioos:station:SCCF:11:1,2019-09-08T18:00:00Z,26.4679,-82.0631,5.22,11111222 
SCCF RECON,ioos:station:SCCF:11:1,2019-09-08T19:00:00Z,26.4679,-82.0631,5.79,11111222 
SCCF RECON,ioos:station:SCCF:11:1,2019-09-08T20:00:00Z,26.4679,-82.0631,6.19,11111222 
SCCF RECON,ioos:station:SCCF:11:1,2019-09-08T21:00:00Z,26.4679,-82.0631,6.56,11111222 
SCCF RECON,ioos:station:SCCF:11:1,2019-09-08T22:00:00Z,26.4679,-82.0631,7.05,11111222 
SCCF RECON,ioos:station:SCCF:11:1,2019-09-08T23:00:00Z,26.4679,-82.0631,5.7,11111222 
SCCF RECON,ioos:station:SCCF:11:1,2019-09-09T04:00:00Z,26.4679,-82.0631,5.11,11111222 
SCCF RECON,ioos:station:SCCF:11:1,2019-09-09T05:00:00Z,26.4679,-82.0631,4.03,11111222 
SCCF RECON,ioos:station:SCCF:11:1,2019-09-09T06:00:00Z,26.4679,-82.0631,4.07,11111222 
SCCF RECON,ioos:station:SCCF:11:1,2019-09-09T07:00:00Z,26.4679,-82.0631,4.36,11111222 
SCCF RECON,ioos:station:SCCF:11:1,2019-09-09T08:00:00Z,26.4679,-82.0631,3.97,11111222 
SCCF RECON,ioos:station:SCCF:11:1,2019-09-09T09:00:00Z,26.4679,-82.0631,4.48,11111222 
SCCF RECON,ioos:station:SCCF:11:1,2019-09-09T10:00:00Z,26.4679,-82.0631,4.46,11111222 
SCCF RECON,ioos:station:SCCF:11:1,2019-09-09T11:00:00Z,26.4679,-82.0631,4.47,11111222 
SCCF RECON,ioos:station:SCCF:11:1,2019-09-09T12:00:00Z,26.4679,-82.0631,4.64,11111222 
SCCF RECON,ioos:station:SCCF:11:1,2019-09-09T13:00:00Z,26.4679,-82.0631,4.22,11111222 
SCCF RECON,ioos:station:SCCF:11:1,2019-09-09T14:00:00Z,26.4679,-82.0631,4.68,11111222 
SCCF RECON,ioos:station:SCCF:11:1,2019-09-09T15:00:00Z,26.4679,-82.0631,3.6,11111222 
SCCF RECON,ioos:station:SCCF:11:1,2019-09-09T16:00:00Z,26.4679,-82.0631,3.73,11111222 
SCCF RECON,ioos:station:SCCF:11:1,2019-09-09T17:00:00Z,26.4679,-82.0631,4.38,11111222 
SCCF RECON,ioos:station:SCCF:11:1,2019-09-09T18:00:00Z,26.4679,-82.0631,5.84,11111222 
SCCF RECON,ioos:station:SCCF:11:1,2019-09-09T22:00:00Z,26.4679,-82.0631,7.09,11111222 
SCCF RECON,ioos:station:SCCF:11:1,2019-09-09T23:00:00Z,26.4679,-82.0631,7.08,11111222 
SCCF RECON,ioos:station:SCCF:11:1,2019-09-10T04:00:00Z,26.4679,-82.0631,4.43,11111222 
SCCF RECON,ioos:station:SCCF:11:1,2019-09-10T05:00:00Z,26.4679,-82.0631,4.02,11111222 
SCCF RECON,ioos:station:SCCF:11:1,2019-09-10T06:00:00Z,26.4679,-82.0631,4.09,11111222 
SCCF RECON,ioos:station:SCCF:11:1,2019-09-10T07:00:00Z,26.4679,-82.0631,5.13,11111222 
SCCF RECON,ioos:station:SCCF:11:1,2019-09-10T08:00:00Z,26.4679,-82.0631,5.01,11111222 
SCCF RECON,ioos:station:SCCF:11:1,2019-09-10T09:00:00Z,26.4679,-82.0631,5.16,11111222 
SCCF RECON,ioos:station:SCCF:11:1,2019-09-10T10:00:00Z,26.4679,-82.0631,4.37,11111222 
SCCF RECON,ioos:station:SCCF:11:1,2019-09-10T11:00:00Z,26.4679,-82.0631,4.95,11111222 
SCCF RECON,ioos:station:SCCF:11:1,2019-09-10T12:00:00Z,26.4679,-82.0631,4.98,11111222 
SCCF RECON,ioos:station:SCCF:11:1,2019-09-10T13:00:00Z,26.4679,-82.0631,4.57,11111222 
SCCF RECON,ioos:station:SCCF:11:1,2019-09-10T14:00:00Z,26.4679,-82.0631,4.08,11111222 
SCCF RECON,ioos:station:SCCF:11:1,2019-09-10T15:00:00Z,26.4679,-82.0631,4.78,11111222 
SCCF RECON,ioos:station:SCCF:11:1,2019-09-10T16:00:00Z,26.4679,-82.0631,4.22,11111222 
SCCF RECON,ioos:station:SCCF:11:1,2019-09-10T17:00:00Z,26.4679,-82.0631,4.15,11111222 
SCCF RECON,ioos:station:SCCF:11:1,2019-09-10T18:00:00Z,26.4679,-82.0631,4.92,11111222 
SCCF RECON,ioos:station:SCCF:11:1,2019-09-10T19:00:00Z,26.4679,-82.0631,5.81,11111222 
SCCF RECON,ioos:station:SCCF:11:1,2019-09-10T20:00:00Z,26.4679,-82.0631,7.57,11111222 
SCCF RECON,ioos:station:SCCF:11:1,2019-09-10T21:00:00Z,26.4679,-82.0631,7.13,11111222 
SCCF RECON,ioos:station:SCCF:11:1,2019-09-10T22:00:00Z,26.4679,-82.0631,7.08,11111222 
SCCF RECON,ioos:station:SCCF:11:1,2019-09-10T23:00:00Z,26.4679,-82.0631,7.23,11111222 
SCCF RECON,ioos:station:SCCF:11:1,2019-09-11T04:00:00Z,26.4679,-82.0631,6.14,11111222 
SCCF RECON,ioos:station:SCCF:11:1,2019-09-11T05:00:00Z,26.4679,-82.0631,5.95,11111222 
SCCF RECON,ioos:station:SCCF:11:1,2019-09-11T06:00:00Z,26.4679,-82.0631,6.01,11111222 
SCCF RECON,ioos:station:SCCF:11:1,2019-09-11T07:00:00Z,26.4679,-82.0631,5.5,11111222 
SCCF RECON,ioos:station:SCCF:11:1,2019-09-11T08:00:00Z,26.4679,-82.0631,5.65,11111222 
SCCF RECON,ioos:station:SCCF:11:1,2019-09-11T09:00:00Z,26.4679,-82.0631,7.27,11111222 
SCCF RECON,ioos:station:SCCF:11:1,2019-09-11T10:00:00Z,26.4679,-82.0631,5.96,11111222 
SCCF RECON,ioos:station:SCCF:11:1,2019-09-11T11:00:00Z,26.4679,-82.0631,5.39,11111222 
SCCF RECON,ioos:station:SCCF:11:1,2019-09-11T12:00:00Z,26.4679,-82.0631,5.65,11111222 
SCCF RECON,ioos:station:SCCF:11:1,2019-09-11T13:00:00Z,26.4679,-82.0631,5.68,11111222 
SCCF RECON,ioos:station:SCCF:11:1,2019-09-11T14:00:00Z,26.4679,-82.0631,5.49,11111222 
SCCF RECON,ioos:station:SCCF:11:1,2019-09-11T15:00:00Z,26.4679,-82.0631,5.09,11111222 
SCCF RECON,ioos:station:SCCF:11:1,2019-09-11T16:00:00Z,26.4679,-82.0631,4.96,11111222 
SCCF RECON,ioos:station:SCCF:11:1,2019-09-11T17:00:00Z,26.4679,-82.0631,4.68,11111222 
SCCF RECON,ioos:station:SCCF:11:1,2019-09-11T18:00:00Z,26.4679,-82.0631,5.35,11111222 
SCCF RECON,ioos:station:SCCF:11:1,2019-09-11T19:00:00Z,26.4679,-82.0631,6.39,11111222 
SCCF RECON,ioos:station:SCCF:11:1,2019-09-11T20:00:00Z,26.4679,-82.0631,7.77,11111222 
SCCF RECON,ioos:station:SCCF:11:1,2019-09-11T21:00:00Z,26.4679,-82.0631,7.23,11111222 
SCCF RECON,ioos:station:SCCF:11:1,2019-09-11T22:00:00Z,26.4679,-82.0631,7.28,11111222 
SCCF RECON,ioos:station:SCCF:11:1,2019-09-11T23:00:00Z,26.4679,-82.0631,7.75,11111222 
SCCF RECON,ioos:station:SCCF:11:1,2019-09-12T04:00:00Z,26.4679,-82.0631,6.42,11111222 
SCCF RECON,ioos:station:SCCF:11:1,2019-09-12T05:00:00Z,26.4679,-82.0631,6.02,11111222 
SCCF RECON,ioos:station:SCCF:11:1,2019-09-12T06:00:00Z,26.4679,-82.0631,5.94,11111222 
SCCF RECON,ioos:station:SCCF:11:1,2019-09-12T07:00:00Z,26.4679,-82.0631,5.72,11111222 
SCCF RECON,ioos:station:SCCF:11:1,2019-09-12T08:00:00Z,26.4679,-82.0631,5.65,11111222 
SCCF RECON,ioos:station:SCCF:11:1,2019-09-12T09:00:00Z,26.4679,-82.0631,5.99,11111222 
SCCF RECON,ioos:station:SCCF:11:1,2019-09-12T10:00:00Z,26.4679,-82.0631,5.7,11111222 
SCCF RECON,ioos:station:SCCF:11:1,2019-09-12T11:00:00Z,26.4679,-82.0631,5.88,11111222 
SCCF RECON,ioos:station:SCCF:11:1,2019-09-12T12:00:00Z,26.4679,-82.0631,5.79,11111222 
SCCF RECON,ioos:station:SCCF:11:1,2019-09-12T13:00:00Z,26.4679,-82.0631,5.71,11111222 
SCCF RECON,ioos:station:SCCF:11:1,2019-09-12T14:00:00Z,26.4679,-82.0631,5.03,11111222 
SCCF RECON,ioos:station:SCCF:11:1,2019-09-12T15:00:00Z,26.4679,-82.0631,5.11,11111222 
SCCF RECON,ioos:station:SCCF:11:1,2019-09-12T16:00:00Z,26.4679,-82.0631,4.79,11111222 
SCCF RECON,ioos:station:SCCF:11:1,2019-09-13T20:00:00Z,26.4679,-82.0631,6.44,11111222 
SCCF RECON,ioos:station:SCCF:11:1,2019-09-13T21:00:00Z,26.4679,-82.0631,7.5,11111222 
SCCF RECON,ioos:station:SCCF:11:1,2019-09-13T22:00:00Z,26.4679,-82.0631,7.85,11111222 
SCCF RECON,ioos:station:SCCF:11:1,2019-09-13T23:00:00Z,26.4679,-82.0631,7.32,11111222 
SCCF RECON,ioos:station:SCCF:11:1,2019-09-14T04:00:00Z,26.4679,-82.0631,5.53,11111222 
SCCF RECON,ioos:station:SCCF:11:1,2019-09-14T05:00:00Z,26.4679,-82.0631,5.52,11111222 
SCCF RECON,ioos:station:SCCF:11:1,2019-09-14T06:00:00Z,26.4679,-82.0631,5.28,11111222 
SCCF RECON,ioos:station:SCCF:11:1,2019-09-14T07:00:00Z,26.4679,-82.0631,5.07,11111222 
SCCF RECON,ioos:station:SCCF:11:1,2019-09-14T08:00:00Z,26.4679,-82.0631,5.02,11111222 
SCCF RECON,ioos:station:SCCF:11:1,2019-09-14T09:00:00Z,26.4679,-82.0631,5.02,11111222 
SCCF RECON,ioos:station:SCCF:11:1,2019-09-14T10:00:00Z,26.4679,-82.0631,5.34,11111222 
SCCF RECON,ioos:station:SCCF:11:1,2019-09-14T11:00:00Z,26.4679,-82.0631,4.99,11111222 
SCCF RECON,ioos:station:SCCF:11:1,2019-09-14T12:00:00Z,26.4679,-82.0631,5.23,11111222 
SCCF RECON,ioos:station:SCCF:11:1,2019-09-14T13:00:00Z,26.4679,-82.0631,4.18,11111222 
SCCF RECON,ioos:station:SCCF:11:1,2019-09-14T14:00:00Z,26.4679,-82.0631,5.19,11111222 
SCCF RECON,ioos:station:SCCF:11:1,2019-09-14T15:00:00Z,26.4679,-82.0631,4.71,11111222 
SCCF RECON,ioos:station:SCCF:11:1,2019-09-14T16:00:00Z,26.4679,-82.0631,5.67,11111222 
SCCF RECON,ioos:station:SCCF:11:1,2019-09-14T17:00:00Z,26.4679,-82.0631,5.91,11111222 
SCCF RECON,ioos:station:SCCF:11:1,2019-09-14T18:00:00Z,26.4679,-82.0631,5.16,11111222 
SCCF RECON,ioos:station:SCCF:11:1,2019-09-14T19:00:00Z,26.4679,-82.0631,5.21,11111222 
SCCF RECON,ioos:station:SCCF:11:1,2019-09-14T20:00:00Z,26.4679,-82.0631,5.93,11111222 
SCCF RECON,ioos:station:SCCF:11:1,2019-09-14T21:00:00Z,26.4679,-82.0631,6.54,11111222 
SCCF RECON,ioos:station:SCCF:11:1,2019-09-14T22:00:00Z,26.4679,-82.0631,7.04,11111222 
SCCF RECON,ioos:station:SCCF:11:1,2019-09-14T23:00:00Z,26.4679,-82.0631,7.55,11111222 
SCCF RECON,ioos:station:SCCF:11:1,2019-09-15T04:00:00Z,26.4679,-82.0631,5.47,11111222 
SCCF RECON,ioos:station:SCCF:11:1,2019-09-15T05:00:00Z,26.4679,-82.0631,5.7,11111222 
SCCF RECON,ioos:station:SCCF:11:1,2019-09-15T06:00:00Z,26.4679,-82.0631,5.39,11111222 
SCCF RECON,ioos:station:SCCF:11:1,2019-09-15T07:00:00Z,26.4679,-82.0631,5.15,11111222 
SCCF RECON,ioos:station:SCCF:11:1,2019-09-15T08:00:00Z,26.4679,-82.0631,4.82,11111222 
SCCF RECON,ioos:station:SCCF:11:1,2019-09-15T09:00:00Z,26.4679,-82.0631,4.8,11111222 
SCCF RECON,ioos:station:SCCF:11:1,2019-09-15T10:00:00Z,26.4679,-82.0631,5.0,11111222 
SCCF RECON,ioos:station:SCCF:11:1,2019-09-15T11:00:00Z,26.4679,-82.0631,5.22,11111222 
SCCF RECON,ioos:station:SCCF:11:1,2019-09-15T12:00:00Z,26.4679,-82.0631,5.35,11111222 
SCCF RECON,ioos:station:SCCF:11:1,2019-09-15T13:00:00Z,26.4679,-82.0631,5.17,11111222 
SCCF RECON,ioos:station:SCCF:11:1,2019-09-15T14:00:00Z,26.4679,-82.0631,4.77,11111222 
SCCF RECON,ioos:station:SCCF:11:1,2019-09-15T15:00:00Z,26.4679,-82.0631,4.91,11111222 
SCCF RECON,ioos:station:SCCF:11:1,2019-09-15T16:00:00Z,26.4679,-82.0631,5.49,11111222 
SCCF RECON,ioos:station:SCCF:11:1,2019-09-15T17:00:00Z,26.4679,-82.0631,6.86,11111222 
SCCF RECON,ioos:station:SCCF:11:1,2019-09-15T18:00:00Z,26.4679,-82.0631,4.61,11111222 
SCCF RECON,ioos:station:SCCF:11:1,2019-09-15T19:00:00Z,26.4679,-82.0631,4.48,11111222 
SCCF RECON,ioos:station:SCCF:11:1,2019-09-15T20:00:00Z,26.4679,-82.0631,4.77,11111222 
SCCF RECON,ioos:station:SCCF:11:1,2019-09-15T21:00:00Z,26.4679,-82.0631,5.87,11111222 
SCCF RECON,ioos:station:SCCF:11:1,2019-09-15T22:00:00Z,26.4679,-82.0631,7.34,11111222 
SCCF RECON,ioos:station:SCCF:11:1,2019-09-15T23:00:00Z,26.4679,-82.0631,7.03,11111222 
SCCF RECON,ioos:station:SCCF:11:1,2019-09-16T04:00:00Z,26.4679,-82.0631,5.54,11111222 
SCCF RECON,ioos:station:SCCF:11:1,2019-09-16T05:00:00Z,26.4679,-82.0631,5.61,11111222 
SCCF RECON,ioos:station:SCCF:11:1,2019-09-16T06:00:00Z,26.4679,-82.0631,5.76,11111222 